Location: Newark
(35.9031°N, 139.7175°E)
Time: 13:30:29
(UTC+00:00)

Transit 2A - Pass Details

Date: 01 June 2020
Orbit: 592 x 967 km, 66.7° (Epoch: 06 July)

Event Time Altitude Azimuth Distance (km) Brightness Sun altitude
Rises 11:46:55 0° 342° (NNW) 3,562 10.6 -19.1°
Reaches altitude 10° 11:49:43 10° 352° (N) 2,655 9.6 -19.5°
Maximum altitude 11:55:14 32° 54° (NE) 1,600 7.6 -20.2°
Enters shadow 11:57:52 24° 93° (E) 1,902 7.6 -20.5°
